Weather History for Bentonville, AR

Change the Weather History Date:

Wednesday, June 5, 2013

  Actual Average Record
Temperature  
Mean Temperature 70 °F -  
Max Temperature 78 °F 79 °F 95 °F (1958)
Min Temperature 62 °F 57 °F 44 °F (1954)
Cooling Degree Days 5    
Growing Degree Days 20 (Base 50)    
Moisture  
Dew Point 62 °F    
Average Humidity 77    
Maximum Humidity 94    
Minimum Humidity 61    
Precipitation  
Precipitation 0.44 in - - ()
Sea Level Pressure  
Sea Level Pressure 29.92 in    
Wind  
Wind Speed 6 mph (WNW)    
Max Wind Speed 15 mph    
Max Gust Speed 22 mph    
Visibility 10 miles    
Events Thunderstorm    
Averages and records for this station are not official NWS values.
T = Trace of Precipitation, MM = Missing Value Source: NWS Daily Summary

Daily Weather History Graph

Daily Weather History Graph

Search for Another Location

Airport:

Trip Planner

Search our weather history database for the weather conditions in past years. The results will help you decide how hot, cold, wet, or windy it might be!

Date:

Astronomy

Jun. 05, 2013 Rise Set
Actual Time 5:59 AM CDT 8:31 PM CDT
Civil Twilight 5:29 AM CDT 9:01 PM CDT
Nautical Twilight 4:52 AM CDT 9:39 PM CDT
Astronomical Twilight 4:10 AM CDT 10:20 PM CDT
Moon 3:59 AM CDT (6/5) 6:02 PM CDT (6/5)
Length of Visible Light 15h 32m
Length of Day
14h 32m
Waning Crescent, 8% of the Moon is Illuminated
Jun 5
Waning Crescent
Jun 8
New
Jun 16
First Quarter
Jun 23
Full
Jun 29
Last Quarter

Hourly Weather History & Observations

Time (CDT) Temp. Dew Point Humidity Pressure Visibility Wind Dir Wind Speed Gust Speed Precip Events Conditions
12:15 AM 66.2 °F 60.8 °F 83% 29.96 in 10.0 mi East 4.6 mph - N/A   Clear
12:35 AM 66.2 °F 60.8 °F 83% 29.96 in 10.0 mi East 4.6 mph - N/A   Clear
12:55 AM 66.2 °F 60.8 °F 83% 29.96 in 10.0 mi East 4.6 mph - N/A   Clear
1:35 AM 64.4 °F 60.8 °F 88% 29.96 in 10.0 mi ESE 4.6 mph - N/A   Clear
1:55 AM 64.4 °F 59.0 °F 83% 29.96 in 10.0 mi ESE 4.6 mph - N/A   Clear
2:15 AM 64.4 °F 59.0 °F 83% 29.95 in 10.0 mi Calm Calm - N/A   Clear
2:35 AM 64.4 °F 59.0 °F 83% 29.95 in 10.0 mi Calm Calm - N/A   Clear
2:55 AM 62.6 °F 59.0 °F 88% 29.94 in 10.0 mi Calm Calm - N/A   Clear
3:35 AM 62.6 °F 57.2 °F 82% 29.92 in 10.0 mi ESE 4.6 mph - N/A   Clear
3:56 AM 64.4 °F 57.2 °F 77% 29.92 in 10.0 mi ESE 4.6 mph - N/A   Clear
4:15 AM 64.4 °F 57.2 °F 77% 29.92 in 10.0 mi East 3.5 mph - N/A   Mostly Cloudy
4:35 AM 64.4 °F 57.2 °F 77% 29.92 in 10.0 mi ESE 3.5 mph - N/A   Partly Cloudy
4:55 AM 64.4 °F 57.2 °F 77% 29.91 in 10.0 mi East 3.5 mph - N/A   Partly Cloudy
5:15 AM 62.6 °F 57.2 °F 82% 29.91 in 10.0 mi East 3.5 mph - N/A   Partly Cloudy
5:35 AM 64.4 °F 57.2 °F 77% 29.91 in 10.0 mi ESE 4.6 mph - N/A   Mostly Cloudy
5:55 AM 64.4 °F 57.2 °F 77% 29.91 in 10.0 mi ESE 4.6 mph - N/A   Mostly Cloudy
6:35 AM 64.4 °F 57.2 °F 77% 29.92 in 10.0 mi SE 6.9 mph - N/A   Partly Cloudy
6:55 AM 64.4 °F 57.2 °F 77% 29.92 in 10.0 mi SE 8.1 mph - N/A   Clear
7:15 AM 62.6 °F 57.2 °F 82% 29.93 in 10.0 mi SE 6.9 mph - N/A   Clear
7:35 AM 64.4 °F 59.0 °F 83% 29.94 in 10.0 mi Calm Calm - N/A   Partly Cloudy
7:55 AM 64.4 °F 59.0 °F 83% 30.00 in 10.0 mi West 12.7 mph 21.9 mph N/A Thunderstorm Mostly Cloudy
8:15 AM 64.4 °F 60.8 °F 88% 30.01 in 6.0 mi West 8.1 mph 16.1 mph 0.15 in Thunderstorm Thunderstorm
8:35 AM 64.4 °F 60.8 °F 88% 30.02 in 8.0 mi WSW 6.9 mph - 0.20 in Thunderstorm Thunderstorm
8:55 AM 64.4 °F 60.8 °F 88% 30.03 in 5.0 mi SSW 5.8 mph - 0.27 in Thunderstorm Overcast
9:15 AM 64.4 °F 60.8 °F 88% 30.02 in 10.0 mi SW 4.6 mph - 0.07 in Thunderstorm Overcast
9:36 AM 64.4 °F 60.8 °F 88% 29.98 in 9.0 mi SE 8.1 mph - 0.10 in   Overcast
9:55 AM 64.4 °F 60.8 °F 88% 29.98 in 9.0 mi SSE 9.2 mph - 0.12 in   Mostly Cloudy
10:15 AM 64.4 °F 62.6 °F 94% 29.98 in 9.0 mi SSE 8.1 mph - 0.04 in   Mostly Cloudy
10:35 AM 64.4 °F 62.6 °F 94% 29.97 in 10.0 mi SSE 4.6 mph - 0.05 in   Mostly Cloudy
10:55 AM 66.2 °F 62.6 °F 88% 29.94 in 10.0 mi SSE 5.8 mph - 0.05 in   Mostly Cloudy
11:15 AM 66.2 °F 62.6 °F 88% 29.92 in 10.0 mi SSE 6.9 mph - N/A   Partly Cloudy
11:35 AM 68.0 °F 64.4 °F 88% 29.89 in 10.0 mi SSE 6.9 mph - N/A   Clear
11:55 AM 69.8 °F 64.4 °F 83% 29.88 in 10.0 mi SSE 4.6 mph - N/A   Clear
12:15 PM 73.4 °F 64.4 °F 73% 29.91 in 10.0 mi WSW 6.9 mph - N/A   Clear
12:35 PM 73.4 °F 64.4 °F 73% 29.91 in 10.0 mi WSW 13.8 mph 18.4 mph N/A   Clear
12:55 PM 75.2 °F 62.6 °F 65% 29.90 in 10.0 mi WSW 11.5 mph - N/A   Clear
1:15 PM 75.2 °F 62.6 °F 65% 29.89 in 10.0 mi WSW 13.8 mph 18.4 mph N/A   Clear
1:35 PM 75.2 °F 64.4 °F 69% 29.90 in 10.0 mi West 11.5 mph - N/A   Clear
1:55 PM 77.0 °F 64.4 °F 65% 29.89 in 10.0 mi WSW 10.4 mph - N/A   Clear
2:16 PM 77.0 °F 64.4 °F 65% 29.89 in 10.0 mi West 9.2 mph - N/A   Partly Cloudy
2:35 PM 75.2 °F 64.4 °F 69% 29.87 in 10.0 mi WNW 10.4 mph - N/A   Partly Cloudy
2:55 PM 77.0 °F 64.4 °F 65% 29.88 in 10.0 mi West 10.4 mph 17.3 mph N/A   Partly Cloudy
3:15 PM 75.2 °F 64.4 °F 69% 29.88 in 10.0 mi West 10.4 mph 18.4 mph N/A   Partly Cloudy
3:35 PM 75.2 °F 64.4 °F 69% 29.88 in 10.0 mi NW 11.5 mph - N/A   Mostly Cloudy
3:55 PM 77.0 °F 64.4 °F 65% 29.89 in 10.0 mi West 15.0 mph 19.6 mph N/A   Mostly Cloudy
4:15 PM 77.0 °F 64.4 °F 65% 29.89 in 10.0 mi West 13.8 mph 19.6 mph N/A   Scattered Clouds
4:35 PM 77.0 °F 64.4 °F 65% 29.89 in 10.0 mi West 12.7 mph 21.9 mph N/A   Partly Cloudy
4:55 PM 78.8 °F 64.4 °F 61% 29.89 in 10.0 mi West 13.8 mph 20.7 mph N/A   Mostly Cloudy
5:15 PM 77.0 °F 64.4 °F 65% 29.89 in 10.0 mi WNW 13.8 mph 19.6 mph N/A   Scattered Clouds
5:35 PM 77.0 °F 64.4 °F 65% 29.89 in 10.0 mi NW 11.5 mph - N/A   Partly Cloudy
5:55 PM 75.2 °F 64.4 °F 69% 29.89 in 10.0 mi WNW 9.2 mph - N/A   Clear
6:15 PM 75.2 °F 64.4 °F 69% 29.89 in 10.0 mi NW 8.1 mph - N/A   Partly Cloudy
6:36 PM 75.2 °F 64.4 °F 69% 29.89 in 10.0 mi NW 8.1 mph - N/A   Mostly Cloudy
6:55 PM 75.2 °F 64.4 °F 69% 29.89 in 10.0 mi NNW 9.2 mph - N/A   Overcast
7:15 PM 75.2 °F 64.4 °F 69% 29.89 in 10.0 mi NNW 5.8 mph - N/A   Scattered Clouds
7:35 PM 75.2 °F 64.4 °F 69% 29.89 in 10.0 mi NNW 5.8 mph - N/A   Clear
7:56 PM 73.4 °F 64.4 °F 73% 29.89 in 10.0 mi NNW 6.9 mph - N/A   Partly Cloudy
8:15 PM 73.4 °F 62.6 °F 69% 29.89 in 10.0 mi North 9.2 mph - N/A   Clear
8:35 PM 71.6 °F 62.6 °F 73% 29.90 in 10.0 mi North 6.9 mph - N/A   Clear
8:56 PM 71.6 °F 62.6 °F 73% 29.90 in 10.0 mi North 6.9 mph - N/A   Clear
9:15 PM 69.8 °F 62.6 °F 78% 29.90 in 10.0 mi North 10.4 mph - N/A   Clear
9:35 PM 69.8 °F 62.6 °F 78% 29.91 in 10.0 mi North 10.4 mph - N/A   Clear
9:56 PM 69.8 °F 62.6 °F 78% 29.92 in 10.0 mi North 8.1 mph - N/A   Clear
10:15 PM 68.0 °F 60.8 °F 78% 29.92 in 10.0 mi North 13.8 mph - N/A   Clear
10:35 PM 66.2 °F 60.8 °F 83% 29.93 in 10.0 mi North 9.2 mph - N/A   Clear
10:55 PM 66.2 °F 60.8 °F 83% 29.94 in 10.0 mi NNE 8.1 mph - N/A   Clear
11:15 PM 64.4 °F 60.8 °F 88% 29.94 in 10.0 mi NNE 8.1 mph - N/A   Scattered Clouds
11:35 PM 64.4 °F 60.8 °F 88% 29.94 in 10.0 mi NNE 8.1 mph - N/A   Mostly Cloudy
11:55 PM 64.4 °F 60.8 °F 88% 29.93 in 10.0 mi NNE 9.2 mph - N/A   Overcast